Home   Weather   59°00'N, 17°35'E   Past weeks
Flag for Sweden

Past Weather in 59°00'N, 17°35'E, Sweden — Yesterday and Last 2 Weeks

Now
46 °F

Fog.


Feels Like: 45 °F
Forecast: 53 / 45 °F
Wind: 3 mph from Southeast

Location: Stockholm Bromma Airport

Current Time: Oct 18, 2019 at 3:53:40 am

Latest Report: Oct 18, 2019 at 2:50 am


Visibility: 3 mi

Pressure: 29.83 "Hg

Humidity: 100%

Dew Point: 46 °F

Location of 59°00'N, 17°35'ELocation

Past Weather in 59°00'N, 17°35'E — Graph

°F

59°00'N, 17°35'E Temperature Yesterday

Maximum temperature yesterday: 46 °F (at 12:20 am)
Minimum temperature yesterday: 45 °F (at 1:50 am)
Average temperature yesterday: 46 °F

High & Low Weather Summary for the Past Weeks

 TemperatureHumidityPressure
High55 °F (Oct 12, 2:20 pm)100% (Oct 3, 2:50 am)30.27 "Hg (Oct 3, 2:50 am)
Low30 °F (Oct 7, 6:50 am)46% (Oct 5, 1:50 pm)29.24 "Hg (Oct 12, 1:20 am)
Average44 °F88%29.78 "Hg
* Reported Oct 3 2:20 am — Oct 18 2:20 am, 59°00'N, 17°35'E. Weather by CustomWeather, © 2019

Note: Actual official high and low records may vary slightly from our data, if they occured in-between our weather recording intervals... More about our weather records

Advertising

59°00'N, 17°35'E Weather History for the Previous 24 Hours

Scroll right to see more
 ConditionsComfort  
Time TempWeatherWind HumidityBarometerVisibility
2:20 am
Fri, Oct 18
46 °FFog.3 mph100%29.83 "Hg2 mi
1:50 am46 °FFog.3 mph100%29.83 "Hg3 mi
1:20 am46 °FLight rain. Low clouds.3 mph100%29.83 "Hg4 mi
12:50 am46 °FFog.3 mph100%29.83 "Hg4 mi
12:20 am46 °FFog.5 mph100%29.83 "Hg5 mi
11:50 pm
Thu, Oct 17
46 °FMostly cloudy.2 mph100%29.86 "Hg6 mi
11:20 pm46 °FFog.2 mph100%29.86 "Hg5 mi
10:50 pm46 °FFog.2 mph100%29.86 "Hg3 mi
10:20 pm46 °FFog.No wind100%29.86 "Hg3 mi
9:50 pm46 °FPassing clouds.No wind100%29.86 "Hg5 mi
9:20 pm46 °FPassing clouds.No wind100%29.83 "Hg4 mi
8:50 pm46 °FPassing clouds.No wind93%29.83 "Hg4 mi
8:20 pm46 °FPassing clouds.No wind93%29.83 "Hg5 mi
7:50 pm46 °FPassing clouds.1 mph93%29.83 "Hg5 mi
7:20 pm46 °FPassing clouds.1 mph93%29.83 "Hg6 mi
6:50 pm46 °FPassing clouds.2 mph93%29.83 "Hg6 mi
6:20 pm46 °FPassing clouds.3 mph93%29.83 "HgN/A
5:50 pm46 °FPassing clouds.3 mph93%29.83 "HgN/A
4:20 pm46 °FBroken clouds.3 mph93%29.83 "HgN/A
3:50 pm46 °FMostly cloudy.2 mph93%29.80 "HgN/A
3:20 pm46 °FPartly sunny.5 mph93%29.80 "HgN/A
2:50 pm46 °FPartly sunny.3 mph93%29.80 "HgN/A
2:20 pm46 °FMostly cloudy.3 mph93%29.80 "HgN/A
1:50 pm46 °FPartly sunny.6 mph93%29.80 "HgN/A
1:20 pm46 °FPartly sunny.6 mph93%29.80 "HgN/A
12:50 pm46 °FPartly sunny.3 mph93%29.77 "HgN/A
12:20 pm46 °FPartly sunny.5 mph93%29.77 "HgN/A
11:50 am46 °FPartly sunny.6 mph93%29.77 "HgN/A
11:20 am46 °FPartly sunny.6 mph93%29.77 "HgN/A
10:50 am46 °FPartly sunny.6 mph93%29.77 "HgN/A
10:20 am46 °FLight rain. Partly sunny.5 mph93%29.74 "HgN/A
9:50 am45 °FLight rain. Partly sunny.5 mph100%29.74 "HgN/A
9:20 am45 °FLight rain. Partly sunny.6 mph100%29.74 "HgN/A
8:50 am45 °FLight rain. Partly sunny.7 mph100%29.74 "Hg5 mi
8:20 am45 °FDrizzle. Broken clouds.5 mph100%29.74 "Hg5 mi
7:50 am45 °FRain. Low clouds.6 mph93%29.71 "Hg5 mi
7:20 am45 °FRain. Passing clouds.7 mph100%29.71 "Hg4 mi
6:50 am45 °FPassing clouds.6 mph100%29.71 "Hg4 mi
6:20 am45 °FFog.7 mph100%29.71 "Hg2 mi
5:50 am45 °FFog.8 mph100%29.71 "Hg2 mi
5:20 am45 °FFog.8 mph100%29.71 "Hg1 mi
4:50 am45 °FFog.7 mph100%29.71 "Hg1 mi
4:20 am45 °FFog.5 mph100%29.71 "Hg1 mi
3:50 am45 °FFog.7 mph100%29.71 "Hg1 mi
3:20 am45 °FFog.6 mph100%29.71 "Hg3 mi
Weather by CustomWeather, © 2019

See weather overview